RH
89 88 88 88 88 96 85 74 84 84 77 77 79 84 86 86 84 81 80 83 87 88 87 86 88 87 79 72 67 71 73 66 65 67 63 61 59 55 60 64 66 68 69 69 70 70 66 59 53 47 49 62 75 75 71 70 68 65 66 68 72 78
88 86 86 88 88 92 90 87 92 89 86 85 84 87 88 89 91 90 87 88 90 89 87 86 87 87 84 81 74 69 72 68 61 62 59 57 57 57 61 64 65 65 68 68 70 76 72 64 56 50 61 76 74 70 74 75 69 65 66 68 74 82
84 87 87 88 89 89 91 91 91 90 92 90 88 90 90 89 89 91 90 89 89 86 85 87 87 85 85 89 83 73 76 72 59 57 56 53 58 63 65 64 65 64 66 69 74 79 76 74 63 58 74 78 69 71 75 72 67 65 66 71 79 85
83 89 89 89 91 89 91 91 89 91 91 89 90 89 89 88 87 90 88 87 85 81 81 87 88 82 82 89 85 78 79 74 61 52 51 57 62 65 68 67 64 64 68 71 73 71 69 74 70 68 76 71 68 73 71 66 66 65 66 72 81 86
85 91 90 90 92 91 90 90 89 90 88 87 88 87 88 89 88 90 89 86 84 81 78 83 90 83 80 83 83 84 83 79 77 64 57 69 74 70 73 73 70 68 72 71 68 66 66 69 69 69 70 68 71 71 67 63 62 61 61 72 82 85
87 90 90 89 91 92 90 88 86 89 87 86 88 85 86 89 90 92 92 88 86 87 79 76 86 86 81 80 78 79 78 77 82 77 71 77 78 76 75 74 75 72 70 68 65 68 69 67 66 65 66 70 73 68 65 61 58 57 57 71 85 87
87 88 89 90 91 92 90 88 86 88 86 84 87 85 84 87 91 94 94 90 88 88 81 75 81 84 83 80 76 73 72 72 75 76 76 77 77 77 72 68 72 69 66 67 67 69 68 67 64 61 65 71 73 67 63 60 57 56 59 70 83 89
89 89 89 90 91 91 92 90 89 90 86 84 86 83 82 87 90 92 93 92 90 87 82 77 79 82 83 79 76 75 73 72 71 72 73 72 74 76 69 64 70 70 68 66 66 67 65 66 64 62 64 69 73 69 65 63 59 58 60 67 79 88
93 90 90 92 91 92 94 94 94 92 88 89 88 83 84 87 87 89 94 95 92 90 83 77 78 80 82 79 76 76 76 75 72 70 69 67 70 75 70 65 70 71 69 68 68 67 65 65 65 62 63 68 72 71 68 64 63 62 60 68 80 88
93 90 89 91 89 92 96 96 96 92 92 93 87 86 90 90 88 91 96 95 91 92 86 77 78 80 79 81 81 78 76 75 74 72 71 68 70 77 72 66 70 69 68 68 68 68 67 64 62 62 62 68 72 70 68 65 65 65 63 73 83 87
93 93 92 92 91 95 97 96 96 94 96 93 88 92 95 91 93 94 98 98 95 96 92 83 83 83 78 81 85 84 79 75 75 76 74 70 74 80 74 68 69 69 68 67 68 69 66 62 60 62 64 68 71 68 68 69 69 67 66 73 79 84
96 96 96 96 94 95 95 97 97 95 97 95 94 97 95 92 93 94 98 100 98 99 98 95 95 91 84 83 85 85 84 80 76 77 75 73 78 82 76 71 70 72 71 69 70 70 68 63 61 63 65 69 71 68 71 74 73 70 69 72 74 78
95 93 95 96 94 94 95 97 97 95 96 97 99 98 96 96 92 91 96 98 100 101 100 99 95 91 90 89 88 86 88 87 81 78 77 77 82 83 77 72 73 75 73 71 72 72 72 69 66 66 65 68 70 70 74 75 75 74 72 72 72 74
93 92 94 94 93 97 97 93 93 96 96 95 97 97 94 95 94 91 92 95 99 97 97 99 91 88 91 91 90 83 81 88 88 85 84 82 82 82 76 70 71 74 73 71 71 72 73 71 69 67 68 70 71 75 79 75 75 76 74 73 74 76
90 89 89 88 88 92 94 91 91 94 94 92 92 93 87 86 90 90 91 95 97 90 90 98 94 90 90 92 95 83 74 83 92 93 90 87 83 80 76 71 69 70 72 72 71 72 73 71 69 67 69 71 72 78 79 75 76 76 75 75 76 80
86 87 86 86 87 87 89 88 87 90 92 92 90 89 84 81 84 88 92 96 96 89 86 94 96 92 89 91 94 89 82 86 95 95 90 90 87 79 77 74 71 70 71 70 70 73 73 73 72 71 72 71 76 81 77 75 78 76 77 77 76 80
87 88 87 88 90 88 88 85 84 88 91 90 90 89 85 85 87 89 93 94 94 94 91 94 96 94 91 89 90 91 90 91 94 93 89 91 89 80 78 80 77 74 73 70 69 71 74 74 74 75 75 73 79 82 76 77 78 78 80 79 78 79
89 89 88 89 90 89 90 88 86 91 92 89 90 91 89 90 91 90 93 93 92 97 98 97 97 95 89 85 87 89 90 92 92 90 88 90 90 82 81 85 84 80 78 73 68 70 74 73 71 73 75 74 79 82 81 82 81 80 82 80 78 77
91 92 94 96 94 92 93 91 89 92 94 91 90 90 90 89 91 93 95 92 88 94 100 99 99 97 90 84 85 85 85 90 92 91 88 90 93 86 84 89 86 83 83 77 70 72 74 73 70 72 76 78 83 86 84 85 84 82 81 79 78 77
94 96 98 97 97 97 98 97 95 94 93 92 91 92 90 87 88 91 92 90 86 91 98 100 100 99 92 86 86 84 82 85 90 93 89 88 93 90 89 92 87 85 87 80 76 78 78 74 73 77 83 87 90 89 87 88 88 84 80 78 78 78
92 95 94 93 96 98 97 97 99 98 95 92 91 92 89 85 86 87 86 87 89 94 98 99 101 100 93 89 88 86 82 82 86 92 90 85 88 92 94 93 88 87 88 84 83 86 82 75 77 81 85 91 95 94 93 92 90 87 83 80 81 82
90 91 88 88 92 96 96 94 93 92 91 92 92 90 86 82 84 87 87 88 91 96 99 100 100 100 97 94 93 92 88 84 84 88 89 86 85 91 96 93 87 85 85 82 83 88 85 78 76 78 80 87 96 99 97 94 91 89 87 83 83 84
91 89 87 87 90 94 98 97 94 91 92 95 95 90 88 86 86 90 91 91 93 95 98 100 100 100 100 99 98 99 97 90 87 86 87 90 89 90 95 93 88 89 88 82 80 85 88 80 71 73 78 81 88 93 95 94 91 90 91 86 82 83
88 86 87 91 93 96 98 99 98 97 98 100 97 93 92 92 91 93 92 90 93 97 98 98 99 100 100 100 99 100 100 96 93 90 87 91 91 91 95 92 91 96 94 86 81 82 88 86 73 68 72 76 83 86 85 87 86 91 94 88 83 86
87 87 88 89 92 94 96 97 98 99 99 98 96 94 93 91 90 95 93 88 90 96 98 97 99 99 99 100 99 98 99 98 97 95 93 95 92 91 97 95 95 99 95 89 85 81 87 90 80 72 72 80 88 85 80 81 82 88 91 86 88 88
87 88 88 88 89 92 93 93 95 95 93 91 88 87 88 86 84 90 92 89 90 94 98 99 97 97 99 100 99 97 98 98 99 99 99 98 92 92 98 98 98 99 92 88 87 87 91 92 87 85 85 87 88 80 79 82 81 84 86 84 87 85
85 85 86 87 88 90 91 92 93 92 90 89 86 84 86 87 85 87 91 92 95 97 99 100 98 97 99 100 99 97 97 97 98 98 99 98 94 92 95 96 96 97 91 87 88 90 93 95 93 91 88 87 88 80 75 76 73 75 79 80 81 81
85 84 85 87 87 89 92 91 91 92 92 91 89 87 88 88 89 90 91 93 95 97 99 99 99 99 98 99 99 96 96 97 97 97 98 98 96 93 94 95 97 97 93 87 87 87 90 93 92 89 85 83 83 77 70 70 67 62 66 73 78 78
87 86 85 86 87 88 92 94 92 91 93 93 91 92 90 88 89 91 91 92 92 94 97 98 98 98 97 96 98 97 96 97 97 98 98 97 98 97 97 97 98 98 95 93 90 88 90 92 89 87 86 80 76 71 67 71 70 61 56 63 73 74
89 89 87 88 88 88 91 95 94 94 94 93 93 93 90 89 90 90 89 88 90 92 94 95 97 98 97 95 98 98 96 95 96 96 96 97 97 97 96 97 99 97 94 95 94 89 91 93 90 89 87 83 79 70 63 66 68 65 59 56 62 65
85 88 88 89 92 93 94 95 96 97 98 97 95 92 89 86 86 89 87 83 85 89 90 94 96 97 97 97 99 98 96 96 97 97 95 97 97 96 95 97 99 96 90 89 89 88 90 92 89 89 89 85 80 71 64 62 61 61 60 55 56 58
79 83 85 86 87 89 91 93 95 97 98 97 92 89 88 84 83 87 86 84 86 85 84 89 94 96 97 97 98 97 98 98 98 99 96 97 98 96 96 97 98 99 95 90 88 86 90 93 91 89 89 86 83 79 74 69 65 62 59 56 56 57
75 78 80 81 83 83 84 86 89 91 92 90 87 85 83 81 82 86 85 86 87 82 80 84 88 92 96 97 95 95 97 98 96 95 94 95 97 96 98 99 98 101 99 96 94 91 92 96 94 91 89 87 86 84 80 77 73 67 61 57 56 55
75 76 77 77 79 79 79 80 83 85 84 83 84 83 81 81 82 84 83 84 84 80 81 85 85 88 93 95 96 95 95 97 95 94 93 95 98 97 97 98 99 99 98 99 98 96 96 96 94 94 92 89 88 86 84 81 74 66 63 61 58 56
79 78 78 79 79 79 78 78 80 83 81 79 80 79 81 84 84 83 82 81 83 83 86 87 84 87 92 92 95 96 94 95 95 95 96 97 100 98 96 99 100 96 93 95 96 93 93 93 94 96 93 91 92 88 85 80 71 64 61 58 57 58
83 82 81 81 82 83 81 80 81 84 83 81 82 82 81 81 82 84 82 80 83 84 89 89 86 90 93 91 93 95 95 95 94 95 97 99 100 99 97 97 97 95 92 93 94 92 91 92 94 95 93 92 89 84 81 76 69 65 61 58 58 59
85 83 82 82 84 84 83 83 81 81 82 82 82 85 85 82 83 85 83 82 84 86 93 95 94 96 92 88 93 95 96 97 94 95 97 97 98 99 97 92 88 91 93 95 96 94 92 92 94 95 93 92 86 80 77 74 70 67 65 63 59 59
Wind_Speed
18 18 18 17 17 16 17 17 16 15 17 18 19 18 18 17 16 16 15 16 15 13 12 10 10 9 9 10 11 12 12 14 14 14 15 15 15 14 12 11 10 10 11 12 10 9 9 10 11 12 13 14 12 9 7 8 9 9 10 10 11 13
18 19 18 18 17 16 16 17 16 15 16 16 16 16 16 15 15 15 15 15 14 13 13 11 11 10 8 9 10 11 11 12 13 14 15 16 16 16 14 12 11 11 12 13 11 9 8 9 10 12 13 13 9 5 6 7 7 8 9 10 11 12
19 19 18 17 16 16 17 17 16 16 16 15 15 15 16 15 15 16 15 15 14 13 13 13 13 12 9 9 9 10 10 11 13 14 16 16 16 16 15 13 12 12 14 13 11 9 8 7 8 10 10 9 6 5 7 7 7 8 9 10 11 12
18 18 17 15 15 16 17 16 16 16 16 17 16 16 16 15 15 16 14 14 12 11 12 13 14 13 11 9 9 9 9 9 11 14 17 17 16 16 15 14 13 14 15 12 10 9 8 8 7 7 5 5 6 7 7 7 7 8 9 9 11 13
17 17 16 15 14 15 15 15 14 14 15 16 16 15 16 14 13 14 13 12 11 11 11 12 13 13 12 11 10 10 9 9 10 13 16 15 15 15 14 14 14 15 14 11 9 9 8 8 7 6 5 6 7 7 6 6 7 7 8 8 10 13
17 16 16 15 14 14 14 13 12 12 12 13 14 14 14 13 12 13 12 11 10 11 11 11 12 12 12 12 12 11 11 10 10 12 15 13 13 15 14 13 14 14 12 10 9 9 8 7 7 6 6 7 6 6 6 6 6 6 7 7 9 11
15 16 15 13 12 12 12 11 10 11 10 11 12 12 11 11 11 12 11 11 10 11 11 11 12 13 13 12 12 12 12 11 11 11 13 13 14 14 13 14 13 12 11 11 10 9 9 7 6 6 7 7 7 6 5 5 5 6 7 7 7 9
12 12 11 11 10 9 9 8 8 10 10 9 10 10 10 10 10 11 11 10 10 10 10 10 11 12 13 12 12 12 12 12 12 12 13 13 14 14 14 13 13 12 12 11 10 10 9 7 6 6 7 7 7 6 5 5 5 5 6 7 7 8
9 9 9 9 9 8 8 8 8 9 9 10 10 10 9 9 10 10 11 11 10 9 9 9 10 11 12 12 12 12 13 12 12 12 12 12 13 14 13 13 13 13 12 11 11 10 9 8 7 6 6 7 7 7 6 5 5 5 6 8 8 7
9 9 9 9 9 9 9 9 8 8 9 10 10 9 9 9 9 10 10 11 11 10 9 9 9 10 10 11 12 12 13 12 13 12 12 12 12 13 13 13 13 13 12 12 11 10 9 8 7 7 6 7 7 6 6 5 5 5 6 7 7 6
8 9 9 9 9 8 8 8 8 8 8 9 9 9 10 10 9 9 10 11 11 11 10 10 10 9 10 11 12 12 12 12 13 12 12 11 11 12 13 13 13 13 12 11 11 10 9 8 8 7 6 7 6 6 6 5 5 5 5 6 7 7
7 8 8 7 7 8 8 8 9 9 9 9 9 10 11 10 9 9 10 11 11 11 11 11 10 9 9 10 11 11 11 12 13 13 13 12 11 11 12 13 13 12 11 11 10 10 9 8 8 7 7 7 6 6 6 6 5 5 5 5 6 7
7 8 7 7 8 8 9 10 10 10 10 10 9 9 9 9 9 10 11 11 11 11 13 13 12 11 9 9 10 10 10 10 12 13 14 14 12 11 11 12 13 13 12 11 10 10 9 8 7 7 7 7 6 6 7 7 6 5 5 5 5 6
7 8 8 9 10 10 11 11 11 9 9 10 9 8 9 9 10 13 13 12 13 14 14 14 15 14 10 9 11 12 12 11 11 12 14 15 15 13 12 13 14 13 12 11 10 10 9 8 8 7 7 7 7 7 7 7 7 6 5 5 5 5
7 9 9 10 11 11 11 11 11 10 10 11 11 10 11 10 11 14 13 12 14 15 15 15 16 16 13 12 11 13 15 13 11 12 13 15 16 15 13 13 14 14 13 12 11 11 10 8 8 8 7 7 7 7 7 7 7 7 6 6 5 5
7 8 9 10 10 10 10 11 12 12 12 12 12 13 12 12 12 12 12 12 13 14 14 15 16 17 16 14 13 12 14 14 13 13 13 13 15 16 15 14 14 14 14 14 13 11 10 9 8 8 8 7 7 8 8 7 7 7 6 6 5 5
7 8 8 8 8 10 11 12 12 11 11 12 13 13 12 12 12 11 12 13 12 11 12 15 16 16 15 14 13 12 11 13 14 14 12 12 14 16 15 14 13 14 15 14 14 12 11 10 9 9 9 8 8 9 8 8 8 7 6 7 6 6
7 7 8 8 8 9 10 11 11 10 10 11 12 13 11 11 11 12 13 12 11 9 9 13 15 16 16 15 15 14 12 12 14 15 13 13 14 15 14 13 13 14 14 14 14 13 12 11 10 9 9 10 10 9 8 8 8 7 7 7 7 7
5 5 6 7 7 8 9 10 10 10 10 11 12 13 12 12 12 13 13 11 10 9 8 10 13 16 18 17 17 17 16 15 15 15 14 13 14 14 13 12 12 13 13 13 13 12 12 11 10 10 9 10 10 9 8 8 8 8 8 8 8 7
4 4 4 6 7 7 8 9 10 10 11 11 12 12 12 12 12 12 12 11 10 9 8 9 11 13 17 19 18 17 17 18 18 16 15 15 15 13 12 13 14 14 13 12 12 12 12 11 10 9 9 9 8 8 8 8 8 8 8 8 8 7
2 2 4 6 6 6 7 8 7 8 11 12 12 11 12 13 12 12 13 11 10 9 9 9 9 10 15 18 19 17 17 19 20 19 19 18 16 13 12 14 15 14 14 13 12 11 12 11 10 10 9 8 8 8 8 8 8 8 8 7 7 6
1 3 4 5 6 7 7 7 6 7 9 10 11 11 11 12 12 12 13 11 10 10 10 10 9 9 12 15 18 19 18 20 20 21 22 20 18 16 13 14 16 15 15 15 13 12 13 13 12 11 10 8 7 7 7 8 8 9 8 8 7 7
1 3 4 5 5 6 6 6 6 6 7 8 9 10 11 10 11 11 12 11 10 11 11 10 10 9 10 13 16 17 17 19 20 21 23 21 19 17 15 15 17 17 16 15 13 13 14 14 12 12 12 8 5 6 6 8 10 10 10 9 9 9
1 3 4 5 4 5 5 5 6 6 6 6 8 10 10 10 10 11 11 11 11 11 11 11 10 10 10 12 14 15 15 17 19 21 23 22 20 20 17 16 18 18 17 15 13 13 13 14 13 12 10 6 4 5 4 8 11 10 11 10 10 11
1 2 4 5 4 5 5 5 5 5 5 6 8 9 9 9 9 10 10 11 12 12 11 11 12 11 11 12 14 15 15 15 17 19 22 22 22 22 19 17 17 18 19 17 14 13 13 14 14 12 9 4 3 4 3 8 10 8 11 12 11 13
2 3 4 5 5 5 5 5 5 5 6 6 8 8 7 7 8 8 10 11 12 13 12 12 13 13 13 13 14 16 17 17 17 17 20 21 22 22 20 19 20 19 21 20 16 14 14 16 17 15 12 7 4 2 3 9 8 5 10 12 11 12
2 4 4 5 5 5 6 6 6 8 9 9 9 8 6 7 8 9 10 10 11 12 12 12 13 14 14 14 14 16 17 19 19 19 19 21 22 24 23 21 21 22 23 22 19 17 16 16 17 18 15 9 5 3 4 7 7 4 7 8 9 10
4 4 4 4 5 6 7 7 8 8 9 10 11 10 9 9 9 9 10 10 10 11 11 12 13 13 15 15 16 18 18 19 20 21 21 21 23 23 22 21 21 22 22 21 20 18 17 16 15 16 15 12 8 6 6 6 6 5 5 6 7 8
5 5 4 4 5 7 8 8 9 9 9 10 10 10 10 10 9 9 10 11 11 11 11 12 13 13 15 16 18 18 18 19 20 22 21 21 22 21 21 21 21 22 21 19 20 19 18 17 16 15 14 13 12 10 8 6 5 5 4 5 6 7
5 6 5 6 6 8 8 8 9 9 10 11 10 10 10 11 10 10 11 11 11 11 11 11 11 12 14 16 17 18 18 19 20 21 21 20 20 20 21 20 20 22 22 19 19 20 19 16 15 16 14 13 14 13 10 8 6 6 5 4 5 7
6 6 6 7 7 7 6 7 8 8 9 9 9 10 11 12 11 11 12 11 10 10 10 10 10 11 13 15 17 18 18 18 18 20 21 20 20 20 21 19 19 20 21 20 19 19 19 17 16 16 15 15 16 13 10 9 8 8 7 4 4 6
6 6 6 7 8 8 8 7 7 7 8 8 9 11 11 12 12 11 12 11 11 12 12 10 9 9 12 15 17 18 18 18 18 19 20 20 20 21 21 19 19 18 17 18 19 17 18 20 19 18 16 16 15 11 9 7 6 7 8 7 6 5
7 7 7 7 8 9 9 9 9 9 9 10 11 12 12 13 13 12 12 12 12 13 13 11 9 8 10 13 16 18 19 19 19 20 21 20 19 20 20 19 18 17 15 15 16 17 18 20 21 19 15 15 14 13 12 9 7 8 7 7 7 6
8 7 7 8 8 8 9 9 9 10 10 11 12 12 14 14 13 13 13 13 12 12 12 11 10 9 9 11 14 17 19 19 19 19 20 20 18 18 19 18 17 15 14 13 14 17 18 19 19 18 14 15 16 16 16 13 10 9 7 8 8 7
9 8 8 9 8 8 9 9 9 10 11 13 13 14 14 14 14 15 15 15 13 12 12 11 11 9 8 10 13 16 18 18 18 18 18 19 19 18 18 17 16 15 15 14 15 17 18 17 18 18 16 15 15 15 14 13 10 8 8 9 8 8
9 9 10 9 9 8 8 9 10 10 11 12 14 15 15 15 16 16 16 15 14 12 11 11 11 9 8 10 12 14 16 17 19 20 19 20 19 18 18 17 16 15 15 15 14 15 17 18 18 17 15 14 14 14 12 10 10 9 8 8 8 9
10 10 10 10 9 9 9 10 10 10 10 12 13 15 17 17 16 15 15 15 14 13 11 11 11 10 10 11 11 13 15 16 18 19 19 19 18 18 18 18 17 16 16 15 13 14 16 16 15 14 14 13 13 14 12 10 10 9 8 8 9 9
Wind_Direction
157 159 158 158 160 165 172 169 169 169 167 168 169 171 169 168 169 173 172 164 157 153 159 167 165 163 164 168 173 177 180 183 185 181 175 169 163 159 154 142 137 143 140 136 128 116 106 101 102 105 107 99 81 72 95 102 101 101 101 104 105 114
161 161 160 160 162 167 172 168 169 169 168 170 170 170 170 169 167 168 168 167 166 164 166 169 170 170 167 165 174 180 178 183 186 183 179 173 164 160 158 150 143 146 146 138 128 124 117 108 107 110 100 82 75 92 105 100 100 101 101 104 109 119
166 164 163 164 166 169 171 171 169 168 169 170 172 173 173 176 175 169 169 176 177 174 173 172 170 168 168 167 176 182 176 181 185 183 180 174 167 161 158 154 150 150 148 139 133 141 138 125 120 112 93 78 95 113 101 101 101 97 99 104 113 118
170 168 166 168 171 170 173 173 170 171 173 174 176 180 180 182 184 177 174 182 183 181 179 174 170 170 173 172 178 183 177 179 181 184 181 172 168 163 157 159 159 154 151 149 151 156 148 143 142 129 113 108 118 112 105 103 98 98 99 103 118 121
172 172 172 175 176 173 175 174 173 176 178 179 180 184 188 187 187 184 182 186 185 181 183 180 175 175 177 174 173 176 177 175 173 180 178 170 170 165 159 165 167 162 161 165 165 159 152 149 151 147 137 127 121 115 110 103 100 103 100 103 122 127
176 178 182 182 179 177 178 178 179 180 181 187 189 191 193 192 190 188 187 189 184 182 188 189 183 179 180 179 176 177 181 177 173 177 176 176 176 171 170 174 174 174 173 171 166 157 155 153 150 145 135 129 125 118 110 106 104 102 104 110 127 135
180 184 188 187 182 181 184 184 184 182 185 195 197 197 197 197 195 191 192 192 188 190 194 195 192 188 187 186 183 184 187 184 184 184 182 184 183 181 184 185 183 185 177 169 165 159 156 156 153 145 134 131 125 118 113 110 108 107 112 116 134 145
186 187 189 191 189 188 188 188 189 186 192 201 201 204 205 202 200 198 199 197 197 200 203 202 199 196 195 194 191 190 191 188 189 190 188 189 187 186 190 191 190 187 177 170 166 162 160 158 155 148 137 134 127 121 117 112 113 115 121 123 134 147
189 188 189 193 195 197 196 193 193 191 199 205 205 212 211 205 207 208 206 205 207 209 211 212 208 205 203 202 198 195 194 190 189 190 190 191 189 186 189 193 192 186 178 170 168 168 165 162 160 155 146 139 130 124 122 121 128 126 125 129 133 146
191 192 193 195 198 202 201 199 199 201 205 206 209 215 212 210 211 212 210 210 212 214 216 217 217 213 209 206 201 198 197 195 194 192 192 195 191 185 187 192 192 188 183 176 173 172 170 168 167 161 153 145 137 134 133 134 141 140 134 133 133 143
193 192 195 198 200 203 204 205 205 208 209 209 215 214 210 212 212 214 214 211 212 214 216 218 218 216 213 209 203 202 201 200 198 194 195 197 192 186 187 191 194 193 189 184 177 175 176 174 171 165 158 151 144 139 139 144 147 149 146 137 133 140
193 193 195 199 203 208 210 211 211 213 214 212 214 214 215 215 216 223 221 216 217 216 216 216 215 216 217 212 207 207 206 206 204 198 199 197 192 189 189 193 197 197 194 190 181 180 181 179 176 168 163 157 150 146 148 154 157 157 151 140 138 143
201 205 207 212 211 211 213 217 216 216 219 219 216 219 223 219 220 231 229 221 219 219 220 220 221 220 220 218 212 209 209 213 212 206 203 199 192 188 189 195 199 199 197 197 192 186 184 182 179 171 169 164 156 155 157 162 164 163 154 148 151 150
203 212 214 219 216 212 219 227 224 218 223 224 221 227 231 225 225 232 233 226 221 221 222 226 229 223 218 221 219 216 214 216 217 212 206 201 195 191 193 198 203 200 197 200 197 190 189 187 183 177 175 169 165 163 164 170 165 160 160 159 158 156
213 221 222 224 223 222 228 232 229 223 223 224 223 230 235 230 229 234 236 231 230 232 227 225 227 222 215 213 216 221 220 220 220 214 209 204 199 196 196 200 203 201 198 201 199 193 193 194 192 187 183 178 175 170 169 172 166 161 163 164 164 168
218 226 226 225 226 230 234 233 232 227 224 227 228 230 233 230 230 234 234 232 238 242 235 227 225 223 219 212 214 222 224 225 226 221 214 209 206 204 202 202 203 202 201 203 200 195 193 193 192 188 189 189 182 176 176 174 170 166 165 169 172 176
212 220 223 225 224 232 237 237 235 230 230 235 232 231 236 235 230 230 230 233 241 242 234 229 225 222 219 215 217 220 220 224 230 229 222 217 214 209 205 203 203 203 204 206 204 197 191 189 188 188 191 193 186 181 182 178 170 168 171 176 176 178
212 222 225 225 228 235 242 246 243 240 242 244 238 238 245 245 236 232 230 232 238 238 232 226 222 222 224 224 223 222 220 219 225 227 222 223 221 213 206 203 201 203 203 207 209 200 192 189 188 191 193 193 189 183 181 176 169 172 180 181 179 179
212 225 231 234 241 248 253 256 253 248 249 254 253 250 249 248 240 236 235 234 236 235 230 221 219 224 228 230 230 228 224 218 219 221 219 222 226 215 203 201 202 202 200 205 209 200 192 189 189 194 193 189 186 182 180 177 174 182 189 182 178 181
202 214 234 243 246 253 260 259 256 255 257 262 264 259 252 247 243 245 248 244 238 233 230 224 218 222 229 233 233 229 224 219 216 215 215 218 223 216 200 200 203 198 193 198 204 197 188 184 184 185 185 183 181 183 185 184 186 192 192 184 181 184
211 234 243 247 237 235 247 249 249 255 260 265 267 262 256 253 251 255 258 252 244 237 233 230 221 219 228 234 233 227 221 218 214 211 214 215 218 218 203 197 201 197 192 194 195 191 186 181 177 175 177 181 181 186 189 190 197 201 196 187 183 186
258 270 255 256 249 244 244 241 243 253 262 272 273 264 257 258 259 260 258 252 245 241 236 233 225 218 221 226 228 224 218 217 214 213 213 212 215 217 207 198 200 200 198 199 196 189 185 183 183 182 180 180 179 183 191 201 207 206 203 195 189 192
272 270 259 256 257 259 252 245 253 259 266 279 282 273 265 265 266 264 260 252 247 246 241 234 227 219 216 219 222 220 218 217 215 214 211 207 210 212 206 201 200 195 192 199 201 193 189 192 196 189 185 189 187 180 191 206 211 212 211 203 197 200
291 279 267 259 262 265 256 255 264 268 273 277 278 279 277 273 270 267 265 259 257 254 247 240 234 227 221 219 221 220 221 219 215 215 210 202 204 207 203 202 201 193 190 193 199 198 197 204 210 201 192 190 179 188 203 201 200 207 209 203 201 204
280 268 264 260 263 264 257 258 265 270 271 267 267 268 269 271 268 265 265 263 264 262 256 250 243 238 230 224 226 225 223 221 215 214 207 198 201 204 199 201 200 195 192 191 191 197 201 209 218 216 204 190 181 206 215 187 185 197 202 198 200 203
270 254 256 255 255 257 258 253 249 251 249 252 262 260 257 265 265 261 261 260 264 265 259 254 247 243 238 230 226 224 221 220 215 211 204 198 201 201 197 200 201 199 197 191 184 186 197 205 214 218 216 218 211 215 202 180 176 189 194 192 196 199
290 263 260 258 255 257 262 255 242 245 252 256 262 261 256 263 263 260 258 253 255 258 255 252 248 245 242 235 229 225 223 220 215 211 204 198 200 202 201 202 203 203 203 199 191 190 197 200 208 215 221 226 212 217 226 195 186 185 177 184 196 195
307 291 279 268 262 257 258 261 254 252 259 261 261 264 261 257 254 252 253 250 248 251 251 249 247 246 244 239 235 233 228 222 216 211 206 201 200 201 202 202 203 204 204 206 204 202 204 204 206 210 214 218 216 220 225 209 213 216 177 167 186 193
314 313 308 292 284 272 263 265 266 262 263 264 263 266 265 261 255 247 247 248 248 247 246 247 247 246 246 243 242 239 231 225 218 212 209 203 199 198 200 200 201 203 202 203 206 206 208 210 212 209 204 207 212 208 198 196 214 223 209 176 174 186
320 319 316 306 296 286 275 270 271 269 268 270 269 264 261 263 261 255 254 253 250 248 244 246 248 247 248 244 241 236 228 224 220 213 211 206 199 197 200 200 200 202 201 200 203 207 212 214 216 217 209 204 209 203 189 188 193 197 211 207 180 180
327 318 309 307 299 290 285 276 276 275 269 271 275 273 269 269 269 265 264 261 257 258 256 250 248 249 249 244 238 233 228 226 220 212 210 208 202 196 198 201 200 202 204 206 208 210 215 217 219 224 218 210 211 204 191 191 191 187 190 199 188 172
340 329 312 303 295 291 290 286 285 279 269 268 270 270 267 267 269 268 266 263 259 267 270 257 245 244 247 246 240 232 228 228 222 213 208 204 201 197 198 201 200 201 203 208 211 210 215 219 221 224 221 217 216 204 199 204 199 196 188 185 188 170
350 341 326 311 300 295 292 288 282 274 268 266 263 260 255 254 256 255 254 251 251 263 270 260 245 239 241 246 244 233 225 224 223 221 215 207 201 198 199 200 199 199 198 202 206 206 214 219 219 221 220 219 216 203 203 206 198 204 192 179 189 177
357 346 337 324 313 303 296 289 281 273 269 264 257 253 250 248 246 244 242 240 243 253 259 257 250 245 243 246 246 234 224 220 220 218 213 207 200 193 197 200 197 195 194 198 203 206 214 217 218 223 221 216 211 202 207 210 197 194 187 183 192 177
357 347 340 330 320 310 302 296 287 280 276 268 260 253 247 241 239 239 239 239 241 244 245 247 249 250 251 250 246 235 224 217 214 206 198 199 198 191 194 200 197 196 200 205 208 209 213 217 221 226 222 215 209 202 208 211 196 188 192 190 187 177
350 341 338 334 328 319 311 306 298 288 281 273 265 259 252 243 237 235 236 239 242 240 234 235 241 243 242 241 242 236 223 211 206 201 198 200 198 193 194 196 197 200 205 211 213 209 210 214 219 222 217 211 208 204 203 201 194 194 197 192 183 182
346 341 339 337 333 327 321 316 309 299 289 277 268 262 257 252 244 238 236 237 238 232 222 222 228 230 227 220 219 225 218 204 200 202 202 198 191 188 190 192 197 201 204 208 209 205 204 206 208 211 212 209 206 206 200 193 196 196 192 193 189 187